| time (UTC) | temp F | wind direction | speed knots | gust knots | rain 1hr in | rain 24hr in | rain mn in | humidity % | barometer mb |
| 20260510134113 | 78 | 200 | 1.7 | 4.3 | 0.00 | 0.04 | 0.00 | 89 | 1016.1 |
| 20260510133614 | 77 | 144 | 2.6 | 4.3 | 0.00 | 0.04 | 0.00 | 89 | 1015.9 |
| 20260510133114 | 77 | 162 | 2.6 | 5.2 | 0.00 | 0.04 | 0.00 | 89 | 1016.0 |
| 20260510132818 | 77 | 153 | 2.6 | 6.1 | 0.00 | 0.04 | 0.00 | 90 | 1015.8 |
| 20260510132614 | 77 | 153 | 2.6 | 6.1 | 0.00 | 0.04 | 0.00 | 90 | 1015.8 |
| 20260510132207 | 76 | 153 | 2.6 | 5.2 | 0.00 | 0.04 | 0.00 | 91 | 1015.9 |
| 20260510132114 | 76 | 153 | 2.6 | 5.2 | 0.00 | 0.04 | 0.00 | 91 | 1015.9 |
| 20260510131614 | 76 | 126 | 2.6 | 3.5 | 0.00 | 0.04 | 0.00 | 92 | 1016.0 |
| 20260510131355 | 76 | 187 | 2.6 | 6.1 | 0.00 | 0.04 | 0.00 | 92 | 1015.9 |
| 20260510131114 | 76 | 187 | 2.6 | 6.1 | 0.00 | 0.04 | 0.00 | 92 | 1015.9 |
| 20260510130821 | 76 | 165 | 2.6 | 3.5 | 0.00 | 0.04 | 0.00 | 92 | 1015.8 |
| 20260510130614 | 76 | 165 | 2.6 | 3.5 | 0.00 | 0.04 | 0.00 | 92 | 1015.8 |
| 20260510130114 | 75 | 93 | 2.6 | 4.3 | 0.00 | 0.04 | 0.00 | 93 | 1015.9 |
| 20260510125846 | 75 | 111 | 1.7 | 3.5 | 0.00 | 0.04 | 0.00 | 94 | 1015.8 |
| 20260510125617 | 74 | 239 | 0.9 | 3.5 | 0.00 | 0.04 | 0.00 | 94 | 1016.0 |
| 20260510125614 | 75 | 111 | 1.7 | 3.5 | 0.00 | 0.04 | 0.00 | 94 | 1015.8 |
| 20260510125359 | 74 | 239 | 0.9 | 3.5 | 0.00 | 0.04 | 0.00 | 94 | 1016.0 |
| 20260510125251 | 75 | 229 | 1.7 | 5.2 | 0.00 | 0.04 | 0.00 | 94 | 1016.0 |
| 20260510125114 | 75 | 229 | 1.7 | 5.2 | 0.00 | 0.04 | 0.00 | 94 | 1016.0 |
| 20260510124755 | 74 | 239 | 0.9 | 3.5 | 0.00 | 0.04 | 0.00 | 94 | 1016.0 |
| 20260510124614 | 74 | 239 | 0.9 | 3.5 | 0.00 | 0.04 | 0.00 | 94 | 1016.0 |